Regional Weather Roundup
Issued by NWS

Home | Current Version | Previous Version | Text Only | Print | Product List | Glossary Off
Versions: 1 2 3 4 5 6 7 8 9 10 11 12 13 14 15 16 17 18 19 20 21 22 23 24 25 26 27 28 29 30 31 32 33 34 35 36 37 38 39 40 41 42 43 44 45 46 47 48 49 50

000
ASUS43 KMKX 070121
RWRWI

WISCONSIN REGIONAL WEATHER ROUNDUP
NATIONAL WEATHER SERVICE MILWAUKEE/SULLIVAN WI
800 PM CDT MON JUL 06 2015

NOTE: "FAIR" INDICATES FEW OR NO CLOUDS BELOW 12,000 FEET WITH NO
SIGNIFICANT WEATHER AND/OR OBSTRUCTIONS TO VISIBILITY.

WIZ001-002-006>008-014>016-023>028-070200-
NORTHWEST WISCONSIN

CITY           SKY/WX    TMP DP  RH WIND       PRES   REMARKS
SUPERIOR ARPT  MOCLDY    63  50  62 NW9       29.96R
ASHLAND        MOCLDY    62  60  93 N3        29.93S FOG
HAYWARD        MOCLDY    63  57  81 N3        29.94S HAZE
SIREN          CLOUDY    65  51  60 N14       29.96R
CUMBERLAND     PTCLDY    63  55  77 N5        29.95R HAZE
RICE LAKE      MOCLDY    64  57  79 CALM      29.96R HAZE
CHETEK         MOCLDY    64  58  82 N3        29.95R HAZE
LADYSMITH        N/A     62  57  83 N8        29.95R HAZE
EAU CLAIRE     CLOUDY    64  56  75 N6        29.94R HAZE
MENOMONIE        N/A     66  58  75 NW5       29.95R HAZE
NEW RICHMOND   CLEAR     65  58  78 N5        29.96R HAZE
OSCEOLA        MOCLDY    68  55  63 NW12      29.99R
$$

WIZ003>005-009-010-017-018-070200-
NORTH CENTRAL WISCONSIN

CITY           SKY/WX    TMP DP  RH WIND       PRES   REMARKS
MANITOWISH WTR CLOUDY    57  57  99 N9        29.93R FOG
ARBOR VITAE    MOCLDY    59  57  92 N7        29.91S FOG
WOODRUFF       MOCLDY    59  57  92 N7        29.91S FOG
RHINELANDER    CLOUDY    59  55  87 VRB5      29.90R FOG
EAGLE RIVER    CLOUDY    57  55  94 N6        29.89S FOG
LAND O LAKES   CLOUDY    58  56  92 N9        29.91S FOG
PHILLIPS       CLOUDY    58  56  93 N8        29.92S FOG
TOMAHAWK       CLOUDY    58  55  89 N7        29.91R FOG
MEDFORD        CLOUDY    60  56  88 N8        29.93R FOG
MERRILL        CLOUDY    61  57  88 N9        29.90R FOG
$$

WIZ029-030-035-036-043>047-070200-
CENTRAL WISCONSIN

CITY           SKY/WX    TMP DP  RH WIND       PRES   REMARKS
WAUSAU         CLOUDY    63  57  81 N9        29.87R HAZE
MOSINEE        CLOUDY    63  57  82 N14G20    29.88R FOG
MARSHFIELD     CLOUDY    64  55  72 N18G26    29.89R HAZE
STEVENS POINT  CLOUDY    61  58  91 N6        29.87R FOG
WAUPACA        CLOUDY    73  71  94 NW16G23   29.81R FOG
WAUTOMA        LGT RAIN  70  70 100 NW13G22   29.83R FOG
WISC RAPIDS    CLOUDY    64  57  78 N12G23    29.88R
CAMP DOUGLAS   MOCLDY    64  64 100 NW13      29.87R
$$

WIZ011>013-019>022-031-037>040-048>050-070200-
NORTHEAST WISCONSIN

CITY           SKY/WX    TMP DP  RH WIND       PRES   REMARKS
ANTIGO         CLOUDY    59  57  93 N15G21    29.87R FOG
SHAWANO        CLOUDY    67  63  86 N16G23    29.82R
OCONTO         CLOUDY    71  71 100 SW8       29.74F
STURGEON BAY   CLOUDY    68  64  88 SW7       29.79R
GREEN BAY      CLOUDY    75  71  87 W9        29.78R
MANITOWOC      LGT RAIN  78  70  76 MISG      29.79S HX  80
APPLETON       MOCLDY    75  66  73 SW8       29.80S
CLINTONVILLE   CLOUDY    66  63  88 NW13G22   29.81R
OSHKOSH        CLOUDY    75  70  84 SW5       29.79S
$$

WIZ032>034-041-042-053>061-070200-
SOUTHWEST WISCONSIN

CITY           SKY/WX    TMP DP  RH WIND       PRES   REMARKS
LA CROSSE      CLOUDY    67  58  72 N13       29.91R HAZE
SPARTA         CLOUDY    64  59  82 NW8       29.91R
VIROQUA        CLOUDY    64  62  96 N14G21    29.90R
BOSCOBEL       CLOUDY    69  65  86 N13G22    29.86R
PRAIRIE DU CHI CLOUDY    68  60  75 NW12G18   29.87R
PLATTEVILLE    CLOUDY    74  72  94 W10       29.84R
$$

WIZ056-057-062-063-064-067-068-070200-
SOUTH CENTRAL WISCONSIN

CITY           SKY/WX    TMP DP  RH WIND       PRES   REMARKS
REEDSBURG      HVY RAIN  72  70  96 NW20G29   29.82R
BARABOO/DELLS  LGT RAIN  72  69  91 CALM      29.82R
LONE ROCK      CLOUDY    73  70  90 NW10      29.82S
MINERAL POINT  RAIN      75  72  88 W7        29.83R
MADISON        MOCLDY    78  70  76 SW5       29.81R HX  80
MIDDLETON      CLOUDY    77  70  79 SW3       29.82S
WATERTOWN      CLOUDY    75  75  98 S5        29.81S
MONROE         CLOUDY    77  72  83 SW9       29.82S
JANESVILLE     MOCLDY    79  75  89 SW6       29.81F HX  82
$$

WIZ051-052-058>065-066-070>072-070200-
SOUTHEAST WISCONSIN

CITY           SKY/WX    TMP DP  RH WIND       PRES   REMARKS
MILWAUKEE      CLOUDY    77  69  76 SW6       29.82S
WAUKESHA       CLOUDY    73  68  83 SW8       29.83F
MILWAUKEE/TIMM MOCLDY    77  66  69 SW10      29.82
RACINE         CLOUDY    75  69  81 S3        29.83F
BURLINGTON     CLOUDY    73  70  89 CALM      29.82S
KENOSHA        CLOUDY    76  71  85 SE3       29.82F
FOND DU LAC    CLOUDY    77  71  82 W6        29.80S
SHEBOYGAN      CLOUDY    78  69  73 SW9       29.79F HX  80
WEST BEND      CLOUDY    75  68  78 SW7       29.81S
JUNEAU         CLOUDY    75  70  83 S8        29.82S
$$

LSZ147-162-070200-
LAKE SUPERIOR

STATION/POSITION TIME  TEMP    WIND        PRES    WAVE
                       AIR SEA DIR/SP/G            HT/PER
                 (UTC) (F)     (DEG/KT/KT) (MB)    (FT/S)
W MID LAKE BUOY  0050   50 39  280/  6/  6 1013.2R   0
DEVILS ISLAND    0100   60     280/  9/ 10 1013.6R
PORT WING        0020   63     280/  5/  6 1013.9S
SAXON HARBOR     0000   61        CALM     1013.2S
$$

LMZ867-665-643>646-070200-
LAKE MICHIGAN

STATION/POSITION TIME  TEMP    WIND        PRES    WAVE
                       AIR SEA DIR/SP/G            HT/PER
                 (UTC) (F)     (DEG/KT/KT) (MB)    (FT/S)
CHAMBERS ISLAND  0000   68     150/  4/ 10 1007.8S
S GREEN BAY BUOY 0000   71 70  190/  4/  6 1009.0
N MID LAKE BUOY  0050   60 57  210/ 17/ 19 1007.8F   4/ 5
NORTHPORT PIER   0100   61     360/ 22     1009.1R
SISTER BAY       0029   64     140/  7/  9   N/A
ALGOMA LAKESHORE 0026          230/  6/  8   N/A
KEWAUNEE LAKESHO 0000   59     190/  9/ 11 1007.7F
SHEBOYGAN LAKESH 0100   71     200/  8/  9 1008.8F
PORT WASHINGTON  0000   79     250/  6/ 10 1010.2S
ATWATER BUOY     0100   71 59  220/  8/  8 1011.0F
MILWAUKEE LAKESH 0100   77     220/  9/ 13   N/A
KENOSHA   LAKESH 0100   69     200/  4/  8 1009.5F
$$

TC  - TEMPERATURE IN CELSIUS
VSB - VISIBILITY IN STATUTE MILES
WCI - WIND CHILL INDEX
HX  - HEAT INDEX



USA.gov is the U.S. government's official web portal to all federal, state and local government web resources and services.